Weather Service Report


763 
ASUS42 KCAE 252310
RWRCAE
REGIONAL WEATHER ROUNDUP
NATIONAL WEATHER SERVICE COLUMBIA SC
600 PM EST THU DEC 25 2014

NOTE: "FAIR" INDICATES FEW OR NO CLOUDS BELOW 12,000 FEET WITH NO
SIGNIFICANT WEATHER AND/OR OBSTRUCTIONS TO VISIBILITY.

NOT ALL STATIONS ARE QUALITY CONTROLLED BY THE NATIONAL 
WEATHER SERVICE. USE DATA WITH CAUTION...ESPECIALLY 
DEWPOINT OBSERVATIONS.

SCZ001>056-GAZ040-063>065-077-260000-
...UPSTATE SOUTH CAROLINA...
  
CITY           SKY/WX    TMP DP  RH WIND       PRES   REMARKS
ANDERSON       CLEAR     49  33  54 CALM      30.19R                  
LIBERTY        FAIR      52  32  47 S3        30.19R                  
SPARTANBURG    FAIR      50  34  53 CALM      30.19R                  
CLEMSON        CLEAR     51  32  48 S3        30.19R                  
GREENVILLE     CLEAR     51  32  48 SW3       30.20R                  
GREENWOOD      CLEAR     46  36  68 CALM      30.21R                  
GREER          CLEAR     48  36  63 SW6       30.19R                  
ROCK HILL      CLEAR     42  35  76 W5        30.20R                  
LAURENS        FAIR      50  41  71 W5        30.20R                  


...CENTRAL SOUTH CAROLINA...
  
CITY           SKY/WX    TMP DP  RH WIND       PRES   REMARKS
COLUMBIA APT   CLEAR     53  38  56 NW5       30.19R                  
COLUMBIA OWENS CLEAR     53  38  56 CALM      30.20R                  
DARLINGTON     CLEAR     48  39  71 NW6       30.17R                  
FLORENCE       CLEAR     53  42  66 CALM      30.15R                  
MCENTIRE ANGB  CLEAR     48  38  66 NW5       30.19R                  
ORANGEBURG     CLEAR     53  38  56 W5        30.18R                  
SUMTER SHAW    CLEAR     51  40  65 W5        30.16R                  
NEWBERRY       FAIR      46  37  71 W3        30.23R                  
AIKEN          FAIR      50  37  62 W3        30.23R                  
BARNWELL       FAIR      48  43  81 CALM      30.21R                  
MANNING        FAIR      50  45  81 CALM      30.17R                  
CAMDEN         FAIR      50  41  71 CALM      30.18R                  
LANCASTER      FAIR      48  34  57 NW5       30.19R                  
WINNSBORO      FAIR      50  37  62 CALM      30.19R                  


...EASTERN AND COASTAL SOUTH CAROLINA...
  
CITY           SKY/WX    TMP DP  RH WIND       PRES   REMARKS
MYRTLE BEACH   CLEAR     52  45  76 W6        30.16R                  
N MYRTLE BCH   CLEAR     50  45  83 CALM      30.15R                  
CONWAY         FAIR      48  48 100 CALM      30.16R                  
MARION         FAIR      48  43  81 CALM      30.16R                  
HARTSVILLE     FAIR      50  39  66 CALM      30.17R                  
FLORENCE       CLEAR     53  42  66 CALM      30.15R                  
DARLINGTON     CLEAR     48  39  71 NW6       30.17R                  
CHARLESTON APT PTCLDY    54  40  59 CALM      30.17R                  
MOUNT PLEASANT FAIR      50  45  81 CALM      30.17R                  
WALTERBORO     CLEAR     50  41  71 CALM      30.19R                  
BEAUFORT       CLEAR     50  42  74 SW3       30.18R                  


...EASTERN GEORGIA...
  
CITY           SKY/WX    TMP DP  RH WIND       PRES   REMARKS
AUGUSTA BUSH F CLEAR     49  39  68 NW5       30.21R                  
AUGUSTA DANIEL CLEAR     53  37  54 NW5       30.21R                  
THOMSON        CLEAR     49  44  81 W3        30.26R                  
WASHINGTON     FAIR      46  45  93 W3        30.20R                  
CLAXTON        FAIR      48  46  93 CALM      30.20R                  
SYLVANIA       CLEAR     49  45  85 CALM      30.20R                  
STATESBORO     CLEAR     47  43  84 CALM      30.19R                  
SAVANNAH       PTCLDY    53  38  56 W3        30.20R                  


...SOUTHERN NORTH CAROLINA...
  
CITY           SKY/WX    TMP DP  RH WIND       PRES   REMARKS
CHARLOTTE      PTCLDY    48  30  49 CALM      30.19R                  
MONROE         CLEAR     48  34  58 W3        30.17R                  
WADESBORO      CLEAR     49  35  58 CALM      30.18R                  
ROCKINGHAM     CLEAR     51  35  54 NW5       30.17R                  
RUTHERFORDTON  CLEAR     49  31  49 CALM      30.19R                  
ASHEVILLE      CLEAR     41  31  67 NW5       30.20R                  

$$

Return to Home page


Western Regional Climate Center, wrcc@dri.edu